الصفحة الرئيسية
METAR-TAF:

METAR-TAF

مطار :

Normanton, أستراليا

دائرة عرض: 17-41-06S, خط طول: 141-04-12E, ارتفاع: 22 متر

مراقبة الطقس الحالي

تاريخ ووقت الإصدار 1ساعة و 14 دقيقة قبل الساعة 21:00UTC
ريح 7 عقدة من الجنوب
درجة الحرارة 12°درجة مئوية
الرطوبة 71%
ضغط 1018 hPa
الرؤية 10 كم أو أكثر

METAR: YNTN 252100Z AUTO 17007KT 9999 // NCD 12/07 Q1018

زمن: 08:14 (22:14 UTC)


TAF: مفقودة

أرصاد الطقس والتوقعات من أكثر من 4000 مطار (تقارير الطقس للمطار METAR والتنبؤ بالطقس بالمطارTAF).

المحطات المتاحة هي النقط الصفراء والحمراء على الخريطة.

حرك المؤشر فوق النقطة لمعرفة اسم المحطة.

ثم انقر لمعرفة أرصاد وتوقعات الطقس.

لتغيير الخارطة: اضغط على الأزرار الخضراء مع رمز الصليب الأسود للتكبير. على الزر الأخضر مع شرطة للتصغير، أو على الأسهم الخضراء للخرائط المجاورة.


METAR-TAF: